Weather in Peschany

Russia / Murmansk Oblast     68°29′49″N   33°11′58″E
temp.,
°C
wind,
m/s
gust,
m/s
humid.,
%
clouds,
%
prec.,
mm/h
press.,
hPa
HPBL,
m
14 may, fri
fri1400:00+2nne3997100 1.4 1019432
03:00+1nne3999100 3.3 1020354
06:00+1ne3998100 3.4 1020372
09:00+1ne41098100 4.8 1021377
12:00+1ne41098100 2.3 1022406
15:00+1ene4998100 2.7 1022538
18:00+1ene41098100 0.6 1021493
21:000e41098100 1.9 1021553
15 may, sat
sat1500:000e4109398 0.4 1021571
03:00−1e41093100 0.7 1021539
06:00−1e41092100 0.2 1020546
09:000ese4992100 0.4 1019506
12:000ese2590100 0.1 1019396
15:00+1ese1191100 0.2 1018258
18:00+1ene1196100 0.0 101790
21:00+1ne1198100 0.0 101627
16 may, sun
sun1600:00+1ene1199100 0.0 101624
03:00+1ene1199100 0.1 101528
06:00+1ene1198100 0.3 101483
09:00+2ene1196100 0.3 1014145
12:00+3e1292100 0.0 1013314
15:00+5e1289100 0.0 1013382
18:00+5ene1194100 0.0 1012147
21:00+3ne1199100 0.0 101231
17 may, mon
mon1700:00+3ene1199100 0.1 101218
03:00+2ene1198100 0.1 101316
06:00+3ese1195100 0.0 101222
09:00+5se1288100 0.0 101396
12:00+7sse2380100 0.0 1013320
15:00+12s3567100 0.0 1013726
18:00+13ssw356610 0.0 1013788
21:00+10sse238076 0.0 101260
18 may, tue
tue1800:00+8s348595 0.0 101360
03:00+6s338891 0.0 101349
06:00+8sse3883100 0.0 1012237
09:00+11sse3576100 0.0 1011367
12:00+13sse4665100 0.0 1009636
15:00+14s4665100 0.1 1007703
18:00+11e3988100 1.4 1004339
21:00+10s2289100 1.4 100345